| time (UTC) | temp F | wind direction | speed knots | gust knots | rain 1hr in | rain 24hr in | rain mn in | humidity % | barometer mb |
| 20260504014053 | 57 | 169 | 0.0 | 0.0 | 0.00 | 0.00 | 0.00 | 65 | 1017.8 |
| 20260504013601 | 57 | 169 | 0.0 | 0.0 | 0.00 | 0.00 | 0.00 | 65 | 1017.7 |
| 20260504013051 | 58 | 169 | 0.0 | 0.0 | 0.00 | 0.00 | 0.00 | 62 | 1017.6 |
| 20260504012551 | 58 | 169 | 0.0 | 0.0 | 0.00 | 0.00 | 0.00 | 62 | 1017.5 |
| 20260504012102 | 59 | 169 | 0.0 | 0.0 | 0.00 | 0.00 | 0.00 | 63 | 1017.4 |
| 20260504011058 | 59 | 169 | 0.0 | 0.0 | 0.00 | 0.00 | 0.00 | 61 | 1017.3 |
| 20260504010546 | 59 | 169 | 0.0 | 0.0 | 0.00 | 0.00 | 0.00 | 60 | 1017.3 |
| 20260504010057 | 60 | 169 | 0.0 | 0.0 | 0.00 | 0.00 | 0.00 | 59 | 1017.2 |
| 20260504005601 | 60 | 169 | 0.0 | 0.0 | 0.00 | 0.00 | 0.00 | 60 | 1017.3 |
| 20260504004558 | 61 | 169 | 0.0 | 0.0 | 0.00 | 0.00 | 0.00 | 55 | 1017.2 |
| 20260504004045 | 62 | 169 | 0.0 | 0.0 | 0.00 | 0.00 | 0.00 | 56 | 1017.1 |
| 20260504003556 | 62 | 169 | 0.0 | 0.9 | 0.00 | 0.00 | 0.00 | 53 | 1017.1 |
| 20260504003102 | 63 | 169 | 0.0 | 0.9 | 0.00 | 0.00 | 0.00 | 52 | 1017.0 |
| 20260504002604 | 63 | 169 | 0.0 | 0.0 | 0.00 | 0.00 | 0.00 | 53 | 1017.1 |
| 20260504002048 | 63 | 169 | 0.0 | 0.0 | 0.00 | 0.00 | 0.00 | 50 | 1016.9 |
| 20260504001558 | 64 | 169 | 0.0 | 0.0 | 0.00 | 0.00 | 0.00 | 49 | 1016.9 |
| 20260504001104 | 64 | 169 | 0.0 | 0.0 | 0.00 | 0.00 | 0.00 | 48 | 1016.9 |
| 20260504000103 | 65 | 169 | 0.0 | 0.0 | 0.00 | 0.00 | 0.00 | 47 | 1016.9 |
| 20260503235547 | 65 | 169 | 0.0 | 0.0 | 0.00 | 0.00 | 0.00 | 46 | 1016.8 |
| 20260503235055 | 65 | 169 | 0.0 | 0.9 | 0.00 | 0.00 | 0.00 | 48 | 1016.8 |
| 20260503234601 | 65 | 169 | 0.0 | 0.0 | 0.00 | 0.00 | 0.00 | 46 | 1016.8 |
| 20260503234050 | 66 | 169 | 0.0 | 0.0 | 0.00 | 0.00 | 0.00 | 44 | 1016.9 |
| 20260503233558 | 66 | 169 | 0.0 | 0.9 | 0.00 | 0.00 | 0.00 | 43 | 1016.9 |
| 20260503232557 | 66 | 169 | 0.0 | 0.9 | 0.00 | 0.00 | 0.00 | 43 | 1016.8 |
| 20260503231556 | 67 | 178 | 0.0 | 2.6 | 0.00 | 0.00 | 0.00 | 41 | 1016.8 |
| 20260503231046 | 67 | 178 | 0.9 | 2.6 | 0.00 | 0.00 | 0.00 | 41 | 1016.8 |
| 20260503230552 | 67 | 209 | 0.0 | 1.7 | 0.00 | 0.00 | 0.00 | 43 | 1016.9 |
| 20260503230100 | 68 | 209 | 0.9 | 7.0 | 0.00 | 0.00 | 0.00 | 40 | 1016.9 |
| 20260503225603 | 68 | 174 | 0.9 | 7.0 | 0.00 | 0.00 | 0.00 | 40 | 1016.9 |
| 20260503225052 | 68 | 213 | 0.9 | 5.2 | 0.00 | 0.00 | 0.00 | 40 | 1016.9 |
| 20260503224602 | 69 | 179 | 2.6 | 5.2 | 0.00 | 0.00 | 0.00 | 38 | 1016.9 |
| 20260503224053 | 68 | 179 | 0.0 | 0.9 | 0.00 | 0.00 | 0.00 | 39 | 1016.9 |
| 20260503223601 | 68 | 179 | 0.0 | 2.6 | 0.00 | 0.00 | 0.00 | 40 | 1016.9 |
| 20260503223049 | 69 | 179 | 1.7 | 2.6 | 0.00 | 0.00 | 0.00 | 39 | 1016.9 |
| 20260503222552 | 69 | 169 | 0.9 | 6.1 | 0.00 | 0.00 | 0.00 | 39 | 1016.9 |
| 20260503222102 | 69 | 169 | 3.5 | 6.1 | 0.00 | 0.00 | 0.00 | 38 | 1017.0 |
| 20260503221551 | 69 | 331 | 0.9 | 4.3 | 0.00 | 0.00 | 0.00 | 40 | 1016.9 |
| 20260503221103 | 69 | 181 | 1.7 | 3.5 | 0.00 | 0.00 | 0.00 | 38 | 1017.0 |
| 20260503220553 | 69 | 166 | 0.9 | 4.3 | 0.00 | 0.00 | 0.00 | 37 | 1017.1 |
| 20260503215554 | 70 | 198 | 2.6 | 7.0 | 0.00 | 0.00 | 0.00 | 37 | 1017.1 |
| 20260503215100 | 70 | 208 | 1.7 | 6.1 | 0.00 | 0.00 | 0.00 | 38 | 1017.1 |
| 20260503214607 | 70 | 236 | 1.7 | 6.1 | 0.00 | 0.00 | 0.00 | 40 | 1017.1 |
| 20260503214054 | 69 | 184 | 0.9 | 4.3 | 0.00 | 0.00 | 0.00 | 40 | 1017.2 |
| 20260503213602 | 69 | 68 | 0.9 | 1.7 | 0.00 | 0.00 | 0.00 | 39 | 1017.2 |
| 20260503213109 | 70 | 68 | 0.9 | 4.3 | 0.00 | 0.00 | 0.00 | 36 | 1017.2 |
| 20260503212556 | 70 | 154 | 2.6 | 7.0 | 0.00 | 0.00 | 0.00 | 37 | 1017.3 |
| 20260503212102 | 70 | 204 | 1.7 | 7.0 | 0.00 | 0.00 | 0.00 | 38 | 1017.3 |
| 20260503211059 | 70 | 183 | 0.9 | 7.8 | 0.00 | 0.00 | 0.00 | 36 | 1017.3 |
| 20260503210504 | 69 | 155 | 2.6 | 7.8 | 0.00 | 0.00 | 0.00 | 39 | 1017.1 |
| 20260503210130 | 69 | 149 | 0.9 | 2.6 | 0.00 | 0.00 | 0.00 | 40 | 1017.3 |
| 20260503205104 | 69 | 321 | 0.9 | 2.6 | 0.00 | 0.00 | 0.00 | 40 | 1017.4 |
| 20260503204552 | 69 | 320 | 0.0 | 2.6 | 0.00 | 0.00 | 0.00 | 40 | 1017.4 |
| 20260503204056 | 69 | 321 | 0.9 | 2.6 | 0.00 | 0.00 | 0.00 | 38 | 1017.5 |
| 20260503203057 | 69 | 176 | 0.0 | 3.5 | 0.00 | 0.00 | 0.00 | 40 | 1017.6 |
| 20260503202604 | 69 | 171 | 1.7 | 5.2 | 0.00 | 0.00 | 0.00 | 41 | 1017.7 |
| 20260503202051 | 70 | 172 | 1.7 | 7.8 | 0.00 | 0.00 | 0.00 | 40 | 1017.7 |
| 20260503201553 | 70 | 214 | 4.3 | 7.8 | 0.00 | 0.00 | 0.00 | 39 | 1017.9 |
| 20260503201100 | 70 | 167 | 1.7 | 7.8 | 0.00 | 0.00 | 0.00 | 39 | 1017.9 |
| 20260503200550 | 70 | 209 | 0.9 | 7.8 | 0.00 | 0.00 | 0.00 | 42 | 1018.0 |
| 20260503200059 | 70 | 188 | 2.6 | 5.2 | 0.00 | 0.00 | 0.00 | 41 | 1018.0 |
| 20260503195559 | 70 | 201 | 2.6 | 7.8 | 0.00 | 0.00 | 0.00 | 43 | 1018.1 |
| 20260503195047 | 69 | 193 | 2.6 | 7.8 | 0.00 | 0.00 | 0.00 | 43 | 1018.1 |
| 20260503194557 | 69 | 301 | 0.9 | 7.0 | 0.00 | 0.00 | 0.00 | 39 | 1018.1 |
| 20260503194045 | 69 | 179 | 3.5 | 7.0 | 0.00 | 0.00 | 0.00 | 41 | 1018.4 |
| 20260503193554 | 68 | 243 | 0.9 | 2.6 | 0.00 | 0.00 | 0.00 | 40 | 1018.5 |
| 20260503193102 | 68 | 337 | 1.7 | 2.6 | 0.00 | 0.00 | 0.00 | 39 | 1018.5 |
| 20260503192604 | 68 | 154 | 1.7 | 2.6 | 0.00 | 0.00 | 0.00 | 38 | 1018.6 |
| 20260503192049 | 69 | 185 | 0.9 | 3.5 | 0.00 | 0.00 | 0.00 | 39 | 1018.7 |
| 20260503191557 | 69 | 271 | 0.9 | 3.5 | 0.00 | 0.00 | 0.00 | 41 | 1018.8 |
| 20260503190558 | 69 | 186 | 1.7 | 7.0 | 0.00 | 0.00 | 0.00 | 38 | 1018.9 |
| 20260503185557 | 69 | 3 | 1.7 | 5.2 | 0.00 | 0.00 | 0.00 | 40 | 1019.1 |
| 20260503185046 | 69 | 288 | 0.9 | 5.2 | 0.00 | 0.00 | 0.00 | 38 | 1019.2 |
| 20260503184550 | 69 | 184 | 2.6 | 5.2 | 0.00 | 0.00 | 0.00 | 36 | 1019.3 |
| 20260503184101 | 69 | 303 | 0.9 | 6.1 | 0.00 | 0.00 | 0.00 | 38 | 1019.5 |
| 20260503183551 | 68 | 177 | 2.6 | 5.2 | 0.00 | 0.00 | 0.00 | 41 | 1019.5 |
| 20260503182549 | 69 | 169 | 1.7 | 8.7 | 0.00 | 0.00 | 0.00 | 39 | 1019.6 |
| 20260503181553 | 69 | 228 | 3.5 | 6.1 | 0.00 | 0.00 | 0.00 | 41 | 1019.7 |
| 20260503181056 | 68 | 203 | 1.7 | 6.1 | 0.00 | 0.00 | 0.00 | 39 | 1019.6 |
| 20260503180542 | 70 | 131 | 3.5 | 6.1 | 0.00 | 0.00 | 0.00 | 38 | 1019.7 |
| 20260503180055 | 69 | 185 | 2.6 | 5.2 | 0.00 | 0.00 | 0.00 | 40 | 1019.7 |
| 20260503175604 | 68 | 210 | 1.7 | 5.2 | 0.00 | 0.00 | 0.00 | 44 | 1019.8 |
| 20260503175052 | 68 | 27 | 0.9 | 4.3 | 0.00 | 0.00 | 0.00 | 41 | 1019.8 |
| 20260503173603 | 67 | 271 | 1.7 | 3.5 | 0.00 | 0.00 | 0.00 | 42 | 1019.9 |
| 20260503173110 | 67 | 174 | 0.9 | 2.6 | 0.00 | 0.00 | 0.00 | 45 | 1020.0 |
| 20260503172553 | 67 | 240 | 0.0 | 1.7 | 0.00 | 0.00 | 0.00 | 43 | 1020.1 |
| 20260503172100 | 68 | 227 | 0.9 | 5.2 | 0.00 | 0.00 | 0.00 | 41 | 1020.2 |
| 20260503171057 | 67 | 160 | 3.5 | 6.1 | 0.00 | 0.00 | 0.00 | 41 | 1020.2 |
| 20260503170547 | 68 | 257 | 1.7 | 5.2 | 0.00 | 0.00 | 0.00 | 45 | 1020.2 |
| 20260503170130 | 67 | 174 | 0.9 | 5.2 | 0.00 | 0.00 | 0.00 | 45 | 1020.2 |
| 20260503150556 | 61 | 184 | 1.7 | 5.2 | 0.00 | 0.00 | 0.00 | 54 | 1020.9 |
| 20260503150105 | 61 | 184 | 2.6 | 7.0 | 0.00 | 0.00 | 0.00 | 55 | 1021.0 |
| 20260503131053 | 53 | 251 | 0.0 | 0.0 | 0.00 | 0.00 | 0.00 | 76 | 1020.4 |
| 20260503110548 | 43 | 303 | 0.0 | 0.0 | 0.00 | 0.02 | 0.00 | 90 | 1019.7 |
| 20260503081550 | 46 | 303 | 0.0 | 0.0 | 0.00 | 0.02 | 0.00 | 85 | 1018.6 |
| 20260503081056 | 46 | 303 | 0.0 | 0.0 | 0.00 | 0.02 | 0.00 | 85 | 1018.5 |
| 20260503080549 | 46 | 303 | 0.0 | 0.0 | 0.00 | 0.02 | 0.00 | 85 | 1018.4 |
| 20260503072553 | 48 | 303 | 0.0 | 0.0 | 0.00 | 0.03 | 0.00 | 79 | 1018.1 |
| 20260503072102 | 48 | 303 | 0.0 | 0.0 | 0.00 | 0.03 | 0.00 | 78 | 1018.0 |
| 20260503071548 | 48 | 303 | 0.0 | 0.0 | 0.00 | 0.03 | 0.00 | 77 | 1018.0 |
| 20260503071056 | 48 | 303 | 0.0 | 0.0 | 0.00 | 0.03 | 0.00 | 77 | 1018.0 |
| 20260503070549 | 48 | 303 | 0.0 | 0.0 | 0.00 | 0.03 | 0.00 | 76 | 1018.0 |
| 20260503055056 | 48 | 303 | 0.0 | 0.0 | 0.00 | 0.04 | 0.00 | 79 | 1017.7 |
| 20260503054546 | 48 | 303 | 0.0 | 0.0 | 0.00 | 0.04 | 0.00 | 80 | 1017.8 |
| 20260503053548 | 48 | 303 | 0.0 | 0.0 | 0.00 | 0.04 | 0.00 | 80 | 1017.7 |
| 20260503053057 | 48 | 303 | 0.0 | 0.0 | 0.00 | 0.04 | 0.00 | 80 | 1017.7 |
| 20260503052559 | 48 | 303 | 0.0 | 0.0 | 0.00 | 0.04 | 0.00 | 80 | 1017.7 |
| 20260503052046 | 48 | 303 | 0.0 | 0.0 | 0.00 | 0.04 | 0.00 | 80 | 1017.7 |
| 20260503051558 | 48 | 303 | 0.0 | 0.0 | 0.00 | 0.04 | 0.00 | 79 | 1017.6 |
| 20260503051046 | 48 | 303 | 0.0 | 0.0 | 0.00 | 0.04 | 0.00 | 79 | 1017.6 |
| 20260503050555 | 49 | 303 | 0.0 | 0.0 | 0.00 | 0.04 | 0.00 | 79 | 1017.6 |
| 20260503050509 | 48 | 303 | 0.0 | 0.0 | 0.00 | 0.04 | 0.00 | 79 | 1017.3 |
| 20260503045548 | 49 | 303 | 0.0 | 0.0 | 0.00 | 0.04 | 0.00 | 78 | 1017.5 |
| 20260503045054 | 49 | 303 | 0.0 | 0.0 | 0.00 | 0.04 | 0.00 | 80 | 1017.4 |
| 20260503044600 | 49 | 303 | 0.0 | 0.0 | 0.00 | 0.04 | 0.00 | 79 | 1017.4 |
| 20260503044049 | 49 | 303 | 0.0 | 0.0 | 0.00 | 0.04 | 0.00 | 78 | 1017.4 |
| 20260503043557 | 49 | 303 | 0.0 | 0.0 | 0.00 | 0.04 | 0.00 | 78 | 1017.3 |
| 20260503043102 | 49 | 303 | 0.0 | 0.0 | 0.00 | 0.04 | 0.00 | 77 | 1017.3 |
| 20260503042550 | 49 | 303 | 0.0 | 0.0 | 0.00 | 0.04 | 0.00 | 76 | 1017.3 |
| 20260503042100 | 49 | 303 | 0.0 | 0.0 | 0.00 | 0.04 | 0.00 | 78 | 1017.3 |
| 20260503041548 | 49 | 303 | 0.0 | 0.0 | 0.00 | 0.04 | 0.00 | 76 | 1017.3 |
| 20260503040550 | 50 | 303 | 0.0 | 0.0 | 0.00 | 0.04 | 0.00 | 75 | 1017.2 |
| 20260503040509 | 49 | 303 | 0.0 | 0.0 | 0.00 | 0.04 | 0.00 | 75 | 1016.9 |
| 20260503040132 | 50 | 303 | 0.0 | 0.0 | 0.00 | 0.04 | 0.00 | 74 | 1017.1 |
| 20260503035057 | 50 | 303 | 0.0 | 0.0 | 0.00 | 0.04 | 0.04 | 74 | 1017.1 |
| 20260503034546 | 50 | 303 | 0.0 | 0.0 | 0.00 | 0.04 | 0.04 | 74 | 1017.1 |
| 20260503034056 | 50 | 303 | 0.0 | 0.0 | 0.00 | 0.04 | 0.04 | 74 | 1017.1 |
| 20260503033547 | 50 | 303 | 0.0 | 0.0 | 0.00 | 0.04 | 0.04 | 74 | 1017.1 |
| 20260503033056 | 50 | 303 | 0.0 | 0.0 | 0.00 | 0.04 | 0.04 | 72 | 1017.0 |
| 20260503032542 | 51 | 303 | 0.0 | 0.0 | 0.00 | 0.04 | 0.04 | 71 | 1017.0 |
| 20260503032049 | 51 | 303 | 0.0 | 0.0 | 0.00 | 0.04 | 0.04 | 72 | 1017.0 |
| 20260503031559 | 51 | 303 | 0.0 | 0.0 | 0.00 | 0.04 | 0.04 | 72 | 1017.0 |
| 20260503031049 | 51 | 303 | 0.0 | 0.0 | 0.00 | 0.04 | 0.04 | 71 | 1016.9 |
| 20260503030559 | 51 | 303 | 0.0 | 0.0 | 0.00 | 0.04 | 0.04 | 70 | 1016.9 |
| 20260503030511 | 51 | 303 | 0.0 | 0.0 | 0.00 | 0.04 | 0.04 | 70 | 1016.6 |
| 20260503030119 | 51 | 303 | 0.0 | 0.0 | 0.00 | 0.04 | 0.04 | 70 | 1016.8 |
| 20260503030005 | 51 | 303 | 0.0 | 0.0 | 0.00 | 0.04 | 0.04 | 70 | 1016.5 |
| 20260503025048 | 52 | 303 | 0.0 | 0.0 | 0.00 | 0.04 | 0.04 | 68 | 1016.6 |
| 20260503024601 | 52 | 303 | 0.0 | 0.0 | 0.00 | 0.04 | 0.04 | 68 | 1016.6 |
| 20260503024052 | 52 | 303 | 0.0 | 0.0 | 0.00 | 0.04 | 0.04 | 68 | 1016.6 |
| 20260503023054 | 53 | 303 | 0.0 | 0.0 | 0.00 | 0.04 | 0.04 | 66 | 1016.4 |
| 20260503022600 | 53 | 303 | 0.0 | 0.0 | 0.00 | 0.04 | 0.04 | 66 | 1016.3 |
| 20260503022047 | 53 | 303 | 0.0 | 0.0 | 0.00 | 0.04 | 0.04 | 66 | 1016.3 |
| 20260503021558 | 53 | 303 | 0.0 | 0.0 | 0.00 | 0.04 | 0.04 | 64 | 1016.2 |
| 20260503020557 | 54 | 303 | 0.0 | 0.0 | 0.00 | 0.04 | 0.04 | 63 | 1015.9 |
| 20260503020106 | 54 | 303 | 0.0 | 0.0 | 0.00 | 0.04 | 0.04 | 63 | 1015.9 |
| 20260503015551 | 55 | 303 | 0.0 | 0.0 | 0.00 | 0.04 | 0.04 | 63 | 1015.9 |
| 20260503015019 | 54 | 303 | 0.0 | 0.0 | 0.00 | 0.04 | 0.04 | 61 | 1015.4 |